• In Kazakhstan
  • List of Countries
  • For 7 days
  • Water Temperature
  • Weather Map
  • News
  • Weather Widgets
  • user-avatar
    Login

    Hourly Weather Solden

    Today, 30 May, Saturday

    Time Temperature Precipitation Wind Pressure Humidity
    00:00 -1°C° 0 mm 1 mps 582 mmHg 86%
    01:00 -1°C° 0 mm 1 mps 582 mmHg 86%
    02:00 -2°C° 0 mm 1 mps 582 mmHg 86%
    03:00 -2°C° 0 mm 1 mps 581 mmHg 87%
    04:00 -2°C° 0 mm 1 mps 581 mmHg 87%
    05:00 0°C° 0 mm 1 mps 582 mmHg 80%
    06:00 0°C° 0 mm 0 mps 583 mmHg 74%
    07:00 +2°C° 0 mm 0 mps 583 mmHg 68%
    08:00 +5°C° 0 mm 1 mps 584 mmHg 62%
    09:00 +7°C° 0 mm 1 mps 584 mmHg 56%
    10:00 +8°C° 0 mm 1 mps 585 mmHg 50%
    11:00 +9°C° 0.1 mm 1 mps 585 mmHg 50%
    12:00 +9°C° 0.1 mm 1 mps 585 mmHg 50%
    13:00 +10°C° 0.1 mm 1 mps 585 mmHg 50%
    14:00 +9°C° 0.3 mm 1 mps 585 mmHg 54%
    15:00 +8°C° 0.3 mm 2 mps 584 mmHg 58%
    16:00 +8°C° 0.3 mm 2 mps 584 mmHg 62%
    17:00 +6°C° 0.6 mm 2 mps 583 mmHg 70%
    18:00 +5°C° 0.6 mm 2 mps 583 mmHg 79%
    19:00 +4°C° 0.6 mm 1 mps 582 mmHg 87%
    20:00 +3°C° 0.3 mm 1 mps 582 mmHg 89%
    21:00 +2°C° 0.3 mm 1 mps 582 mmHg 90%
    22:00 +1°C° 0.3 mm 1 mps 581 mmHg 92%
    23:00 +1°C° 0.1 mm 1 mps 581 mmHg 92%

    Tomorrow, 31 May, Sunday

    Time Temperature Precipitation Wind Pressure Humidity
    00:00 +1°C° 0.1 mm 1 mps 581 mmHg 92%
    01:00 0°C° 0.1 mm 1 mps 581 mmHg 92%
    02:00 0°C° 0 mm 1 mps 581 mmHg 92%
    03:00 0°C° 0 mm 1 mps 581 mmHg 92%
    04:00 -1°C° 0 mm 1 mps 581 mmHg 92%
    05:00 +1°C° 0 mm 1 mps 581 mmHg 88%
    06:00 +1°C° 0 mm 0 mps 582 mmHg 85%
    07:00 +2°C° 0 mm 0 mps 582 mmHg 81%
    08:00 +4°C° 0 mm 1 mps 583 mmHg 73%
    09:00 +6°C° 0 mm 1 mps 584 mmHg 66%
    10:00 +8°C° 0 mm 1 mps 584 mmHg 59%
    11:00 +8°C° 0.1 mm 1 mps 585 mmHg 57%
    12:00 +9°C° 0.1 mm 1 mps 585 mmHg 55%
    13:00 +10°C° 0.1 mm 1 mps 585 mmHg 52%
    14:00 +9°C° 0.2 mm 2 mps 585 mmHg 54%
    15:00 +9°C° 0.2 mm 2 mps 585 mmHg 56%
    16:00 +9°C° 0.2 mm 2 mps 585 mmHg 58%
    17:00 +8°C° 0.2 mm 2 mps 584 mmHg 64%
    18:00 +7°C° 0.2 mm 1 mps 584 mmHg 70%
    19:00 +6°C° 0.2 mm 1 mps 583 mmHg 76%
    20:00 +5°C° 0 mm 1 mps 583 mmHg 79%
    21:00 +3°C° 0 mm 1 mps 582 mmHg 82%
    22:00 +1°C° 0 mm 1 mps 582 mmHg 84%
    23:00 +1°C° 0 mm 1 mps 582 mmHg 84%

    Day after tomorrow, 1 June, Monday

    Time Temperature Precipitation Wind Pressure Humidity
    00:00 0°C° 0 mm 1 mps 582 mmHg 84%
    01:00 0°C° 0 mm 1 mps 581 mmHg 84%
    02:00 0°C° 0 mm 1 mps 581 mmHg 83%
    03:00 0°C° 0 mm 1 mps 581 mmHg 82%
    04:00 0°C° 0 mm 1 mps 581 mmHg 82%
    05:00 +2°C° 0 mm 1 mps 582 mmHg 75%
    06:00 +3°C° 0 mm 0 mps 583 mmHg 69%
    07:00 +4°C° 0 mm 0 mps 584 mmHg 63%
    08:00 +6°C° 0 mm 0 mps 585 mmHg 56%
    09:00 +9°C° 0 mm 1 mps 586 mmHg 50%
    10:00 +11°C° 0 mm 1 mps 586 mmHg 44%
    11:00 +12°C° 0 mm 1 mps 587 mmHg 43%
    12:00 +13°C° 0 mm 1 mps 587 mmHg 42%
    13:00 +14°C° 0 mm 2 mps 587 mmHg 41%
    14:00 +13°C° 0.1 mm 2 mps 587 mmHg 44%
    15:00 +13°C° 0.1 mm 2 mps 587 mmHg 47%
    16:00 +13°C° 0.1 mm 2 mps 586 mmHg 50%
    17:00 +10°C° 0.4 mm 2 mps 586 mmHg 61%
    18:00 +10°C° 0.4 mm 1 mps 585 mmHg 72%
    19:00 +8°C° 0.4 mm 1 mps 584 mmHg 83%
    20:00 +6°C° 0.1 mm 1 mps 584 mmHg 87%
    21:00 +5°C° 0.1 mm 1 mps 583 mmHg 91%
    22:00 +2°C° 0.1 mm 0 mps 583 mmHg 95%
    23:00 +2°C° 0 mm 0 mps 582 mmHg 95%

    2 June, Tuesday

    Time Temperature Precipitation Wind Pressure Humidity
    00:00 +2°C° 0 mm 0 mps 582 mmHg 95%
    01:00 +2°C° 0 mm 0 mps 582 mmHg 95%
    02:00 +2°C° 0 mm 0 mps 582 mmHg 95%
    03:00 +1°C° 0 mm 0 mps 582 mmHg 94%
    04:00 +1°C° 0 mm 0 mps 582 mmHg 94%
    05:00 +3°C° 0 mm 0 mps 582 mmHg 89%
    06:00 +4°C° 0 mm 0 mps 583 mmHg 83%
    07:00 +6°C° 0 mm 0 mps 584 mmHg 78%
    08:00 +9°C° 0 mm 1 mps 585 mmHg 68%
    09:00 +10°C° 0 mm 1 mps 585 mmHg 58%
    10:00 +12°C° 0 mm 1 mps 586 mmHg 48%
    11:00 +13°C° 0.1 mm 1 mps 586 mmHg 45%
    12:00 +14°C° 0.1 mm 2 mps 586 mmHg 43%
    13:00 +14°C° 0.1 mm 2 mps 586 mmHg 41%
    14:00 +14°C° 0.4 mm 2 mps 586 mmHg 44%
    15:00 +14°C° 0.4 mm 2 mps 585 mmHg 46%
    16:00 +13°C° 0.4 mm 2 mps 585 mmHg 49%
    17:00 +12°C° 0.8 mm 2 mps 584 mmHg 58%
    18:00 +9°C° 0.8 mm 2 mps 583 mmHg 68%
    19:00 +9°C° 0.8 mm 1 mps 583 mmHg 77%
    20:00 +7°C° 0.3 mm 1 mps 582 mmHg 80%
    21:00 +5°C° 0.3 mm 1 mps 581 mmHg 83%
    22:00 +3°C° 0.3 mm 1 mps 580 mmHg 86%
    23:00 +3°C° 0.1 mm 1 mps 580 mmHg 86%

    3 June, Wednesday

    Time Temperature Precipitation Wind Pressure Humidity
    00:00 +2°C° 0.1 mm 1 mps 579 mmHg 87%
    01:00 +2°C° 0.1 mm 1 mps 579 mmHg 87%
    02:00 +1°C° 0 mm 1 mps 579 mmHg 86%
    03:00 +1°C° 0 mm 1 mps 578 mmHg 86%
    04:00 +1°C° 0 mm 1 mps 578 mmHg 85%
    05:00 +3°C° 0 mm 1 mps 579 mmHg 79%
    06:00 +4°C° 0 mm 0 mps 579 mmHg 73%
    07:00 +5°C° 0 mm 0 mps 580 mmHg 67%
    08:00 +8°C° 0 mm 1 mps 581 mmHg 59%
    09:00 +10°C° 0 mm 1 mps 581 mmHg 51%
    10:00 +12°C° 0 mm 1 mps 582 mmHg 43%
    11:00 +13°C° 0.1 mm 1 mps 582 mmHg 42%
    12:00 +13°C° 0.1 mm 2 mps 582 mmHg 42%
    13:00 +14°C° 0.1 mm 2 mps 582 mmHg 41%
    14:00 +13°C° 0.3 mm 2 mps 581 mmHg 46%
    15:00 +13°C° 0.3 mm 2 mps 581 mmHg 50%
    16:00 +13°C° 0.3 mm 2 mps 581 mmHg 55%
    17:00 +10°C° 0.6 mm 2 mps 580 mmHg 64%
    18:00 +9°C° 0.6 mm 2 mps 579 mmHg 74%
    19:00 +9°C° 0.6 mm 1 mps 579 mmHg 84%
    20:00 +7°C° 0.4 mm 1 mps 578 mmHg 87%
    21:00 +5°C° 0.4 mm 1 mps 577 mmHg 90%
    22:00 +4°C° 0.4 mm 1 mps 577 mmHg 94%
    23:00 +4°C° 0 mm 1 mps 577 mmHg 94%

    4 June, Thursday

    Time Temperature Precipitation Wind Pressure Humidity
    00:00 +4°C° 0 mm 1 mps 577 mmHg 95%
    01:00 +4°C° 0 mm 1 mps 577 mmHg 95%
    02:00 +4°C° 0 mm 1 mps 577 mmHg 96%
    03:00 +5°C° 0 mm 1 mps 577 mmHg 96%
    04:00 +5°C° 0 mm 1 mps 577 mmHg 96%
    05:00 +5°C° 0 mm 1 mps 577 mmHg 95%
    06:00 +6°C° 0 mm 1 mps 577 mmHg 94%
    07:00 +6°C° 0 mm 1 mps 577 mmHg 92%
    08:00 +7°C° 0.2 mm 1 mps 578 mmHg 89%
    09:00 +8°C° 0.2 mm 1 mps 578 mmHg 86%
    10:00 +8°C° 0.2 mm 2 mps 578 mmHg 83%
    11:00 +9°C° 0.4 mm 2 mps 578 mmHg 80%
    12:00 +9°C° 0.4 mm 2 mps 579 mmHg 77%
    13:00 +10°C° 0.4 mm 2 mps 579 mmHg 74%
    14:00 +10°C° 0.5 mm 2 mps 579 mmHg 77%
    15:00 +9°C° 0.5 mm 3 mps 579 mmHg 79%
    16:00 +9°C° 0.5 mm 3 mps 578 mmHg 82%
    17:00 +8°C° 0.4 mm 2 mps 578 mmHg 86%
    18:00 +7°C° 0.4 mm 2 mps 578 mmHg 91%
    19:00 +6°C° 0.4 mm 2 mps 578 mmHg 95%
    20:00 +7°C° 0.1 mm 1 mps 578 mmHg 96%
    21:00 +6°C° 0.1 mm 1 mps 578 mmHg 97%
    22:00 +6°C° 0.1 mm 1 mps 578 mmHg 98%
    23:00 +6°C° 0 mm 1 mps 577 mmHg 97%
    Show more